Back to catalog

COSMOS 1275 DEB

AlivePO
NORAD 39056·DEBRIS·🇷🇺 Russia

Launched Jun 4, 1981 from Plesetsk Cosmodrome

Loading…

Next Passes (next 24 hours)

TLE

FreshSource: Space-Track

Epoch: Sep 13, 2026, 14:00 UTC

1 39056U 81053MU  26256.58401124  .00000653  00000-0  73570-3 0  9995
2 39056  82.9480 198.9891 0119909 203.7737 155.7849 13.66283192 91717

Track COSMOS 1275 DEB in real time with AllMySat

Download on the App Store